,,PA_Meas_PMT16A,,PR_Meas_QMR101_102,,RH_Meas_QMH101,,SR_Meas_QMS101,,TA_Meas_QMH101,,GenWind,,GenWind,
time,status,PA,status,PR,status,RH,status,SR,status,TA,status,DirAvg,status,SpdAvg,
2012-09-18, 00:00:04,VALID,918.486,VALID,0,VALID,95.7958,VALID,0,VALID,20.0569,VALID,130,VALID,0,
2012-09-18, 00:01:04,VALID,918.475,VALID,0,VALID,95.7425,VALID,0,VALID,20.0358,VALID,130,VALID,0,
2012-09-18, 00:02:04,VALID,918.509,VALID,0,VALID,95.7196,VALID,0,VALID,20.0163,VALID,130,VALID,0,
2012-09-18, 00:03:04,VALID,918.459,VALID,0,VALID,95.6662,VALID,0,VALID,19.9968,VALID,130,VALID,0,
2012-09-18, 00:04:04,VALID,918.477,VALID,0,VALID,95.5138,VALID,0,VALID,19.9383,VALID,130,VALID,0,
2012-09-18, 00:05:04,VALID,918.487,VALID,0,VALID,95.4909,VALID,0,VALID,19.8798,VALID,130,VALID,0,
2012-09-18, 00:06:04,VALID,918.462,VALID,0,VALID,95.7044,VALID,0,VALID,19.8393,VALID,130,VALID,0,
2012-09-18, 00:07:04,VALID,918.43,VALID,0,VALID,95.8035,VALID,0,VALID,19.8603,VALID,130,VALID,0,
2012-09-18, 00:08:04,VALID,918.397,VALID,0,VALID,95.773,VALID,0,VALID,19.8213,VALID,130,VALID,0,
2012-09-18, 00:09:04,VALID,918.406,VALID,0,VALID,95.7958,VALID,0,VALID,19.7823,VALID,130,VALID,0,
2012-09-18, 00:10:04,VALID,918.359,VALID,0,VALID,95.9026,VALID,0,VALID,19.7238,VALID,130,VALID,0,
2012-09-18, 00:11:04,VALID,918.357,VALID,0,VALID,96.0169,VALID,0,VALID,19.7433,VALID,130,VALID,0,
2012-09-18, 00:12:04,VALID,918.363,VALID,0,VALID,96.0093,VALID,0,VALID,19.7238,VALID,130,VALID,0,
2012-09-18, 00:13:04,VALID,918.308,VALID,0,VALID,96.0703,VALID,0,VALID,19.6848,VALID,130,VALID,0,
2012-09-18, 00:14:04,VALID,918.27,VALID,0,VALID,96.1541,VALID,0,VALID,19.6443,VALID,130,VALID,0,
2012-09-18, 00:15:04,VALID,918.288,VALID,0,VALID,96.2228,VALID,0,VALID,19.6653,VALID,130,VALID,0,
2012-09-18, 00:16:04,VALID,918.258,VALID,0,VALID,96.2685,VALID,0,VALID,19.6653,VALID,130,VALID,0,
2012-09-18, 00:17:04,VALID,918.262,VALID,0,VALID,96.3447,VALID,0,VALID,19.6458,VALID,130,VALID,0,
2012-09-18, 00:18:04,VALID,918.269,VALID,0,VALID,96.3981,VALID,0,VALID,19.6653,VALID,130,VALID,0,
2012-09-18, 00:19:04,VALID,918.267,VALID,0,VALID,96.4057,VALID,0,VALID,19.6443,VALID,130,VALID,0,
2012-09-18, 00:20:04,VALID,918.259,VALID,0,VALID,96.4362,VALID,0,VALID,19.6653,VALID,130,VALID,0,
2012-09-18, 00:21:04,VALID,918.28,VALID,0,VALID,96.4591,VALID,0,VALID,19.6653,VALID,130,VALID,0,
2012-09-18, 00:22:04,VALID,918.273,VALID,0,VALID,96.4667,VALID,0,VALID,19.6653,VALID,130,VALID,0,
2012-09-18, 00:23:04,VALID,918.285,VALID,0,VALID,96.5277,VALID,0,VALID,19.6653,VALID,130,VALID,0,
2012-09-18, 00:24:04,VALID,918.28,VALID,0,VALID,96.5582,VALID,0,VALID,19.6848,VALID,130,VALID,0,
2012-09-18, 00:25:04,VALID,918.26,VALID,0,VALID,96.5963,VALID,0,VALID,19.7043,VALID,130,VALID,0,
2012-09-18, 00:26:04,VALID,918.269,VALID,0,VALID,96.6039,VALID,0,VALID,19.7238,VALID,130,VALID,0,
2012-09-18, 00:27:04,VALID,918.199,VALID,0,VALID,96.5887,VALID,0,VALID,19.7028,VALID,130,VALID,0,
2012-09-18, 00:28:04,VALID,918.212,VALID,0,VALID,96.5734,VALID,0,VALID,19.7433,VALID,130,VALID,0,
2012-09-18, 00:29:04,VALID,918.193,VALID,0,VALID,96.5277,VALID,0,VALID,19.7433,VALID,130,VALID,0,
2012-09-18, 00:30:04,VALID,918.182,VALID,0,VALID,96.4667,VALID,0,VALID,19.7223,VALID,130,VALID,0,
2012-09-18, 00:31:04,VALID,918.168,VALID,0,VALID,96.4438,VALID,0,VALID,19.7433,VALID,130,VALID,0,
2012-09-18, 00:32:04,VALID,918.154,VALID,0,VALID,96.4362,VALID,0,VALID,19.7433,VALID,130,VALID,0,
2012-09-18, 00:33:04,VALID,918.153,VALID,0,VALID,96.4591,VALID,0,VALID,19.7823,VALID,130,VALID,0,
2012-09-18, 00:34:04,VALID,918.126,VALID,0,VALID,96.4057,VALID,0,VALID,19.7613,VALID,130,VALID,0,
2012-09-18, 00:35:04,VALID,918.137,VALID,0,VALID,96.3752,VALID,0,VALID,19.8408,VALID,130,VALID,0,
2012-09-18, 00:36:04,VALID,918.158,VALID,0,VALID,96.3142,VALID,0,VALID,19.8393,VALID,130,VALID,0,
2012-09-18, 00:37:04,VALID,918.131,VALID,0,VALID,96.2075,VALID,0,VALID,19.8798,VALID,130,VALID,0,
2012-09-18, 00:38:04,VALID,918.137,VALID,0,VALID,96.0932,VALID,0,VALID,19.8588,VALID,130,VALID,0,
2012-09-18, 00:39:04,VALID,918.123,VALID,0,VALID,95.9712,VALID,0,VALID,19.8603,VALID,130,VALID,0,
2012-09-18, 00:40:04,VALID,918.155,VALID,0,VALID,95.8263,VALID,0,VALID,19.8603,VALID,130,VALID,0,
2012-09-18, 00:41:04,VALID,918.13,VALID,0,VALID,95.7501,VALID,0,VALID,19.8603,VALID,130,VALID,0,
2012-09-18, 00:42:04,VALID,918.115,VALID,0,VALID,95.6586,VALID,0,VALID,19.8408,VALID,130,VALID,0,
2012-09-18, 00:43:04,VALID,918.085,VALID,0,VALID,95.2775,VALID,0.107441,VALID,19.7628,VALID,130,VALID,0,
2012-09-18, 00:44:04,VALID,918.087,VALID,0,VALID,95.0792,VALID,0,VALID,19.6833,VALID,130,VALID,0,
2012-09-18, 00:45:04,VALID,918.06,VALID,0,VALID,94.9878,VALID,0,VALID,19.6443,VALID,130,VALID,0,
2012-09-18, 00:46:04,VALID,918.032,VALID,0,VALID,94.9954,VALID,0,VALID,19.6473,VALID,130,VALID,0,
2012-09-18, 00:47:04,VALID,918.035,VALID,0,VALID,95.125,VALID,0,VALID,19.6278,VALID,130,VALID,0,
2012-09-18, 00:48:04,VALID,918.009,VALID,0,VALID,95.2317,VALID,0,VALID,19.6068,VALID,130,VALID,0,
2012-09-18, 00:49:04,VALID,917.993,VALID,0,VALID,95.3003,VALID,0,VALID,19.5888,VALID,130,VALID,0,
2012-09-18, 00:50:04,VALID,917.975,VALID,0,VALID,95.3613,VALID,0,VALID,19.5693,VALID,130,VALID,0,
2012-09-18, 00:51:04,VALID,917.973,VALID,0,VALID,95.5138,VALID,0,VALID,19.6083,VALID,130,VALID,0,
2012-09-18, 00:52:04,VALID,917.986,VALID,0,VALID,95.6434,VALID,0,VALID,19.6278,VALID,130,VALID,0,
2012-09-18, 00:53:04,VALID,917.951,VALID,0,VALID,95.6053,VALID,0,VALID,19.6263,VALID,130,VALID,0,
2012-09-18, 00:54:04,VALID,917.96,VALID,0,VALID,95.4909,VALID,0,VALID,19.6083,VALID,130,VALID,0,
2012-09-18, 00:55:04,VALID,917.979,VALID,0,VALID,95.4375,VALID,0,VALID,19.6278,VALID,130,VALID,0,
2012-09-18, 00:56:04,VALID,917.976,VALID,0,VALID,95.3156,VALID,0,VALID,19.6083,VALID,130,VALID,0,
2012-09-18, 00:57:04,VALID,917.967,VALID,0,VALID,95.1555,VALID,0,VALID,19.5693,VALID,130,VALID,0,
2012-09-18, 00:58:04,VALID,917.961,VALID,0,VALID,95.0716,VALID,0,VALID,19.5498,VALID,130,VALID,0,
2012-09-18, 00:59:04,VALID,917.915,VALID,0,VALID,95.003,VALID,0,VALID,19.5303,VALID,130,VALID,0,
2012-09-18, 01:00:04,VALID,917.925,VALID,0,VALID,94.9344,VALID,0,VALID,19.5108,VALID,130,VALID,0,
2012-09-18, 01:01:04,VALID,917.893,VALID,0,VALID,94.881,VALID,0,VALID,19.4898,VALID,130,VALID,0,
2012-09-18, 01:02:04,VALID,917.865,VALID,0,VALID,94.8048,VALID,0,VALID,19.4508,VALID,130,VALID,0,
2012-09-18, 01:03:04,VALID,917.879,VALID,0,VALID,94.6828,VALID,0,VALID,19.4313,VALID,129,VALID,0,
2012-09-18, 01:04:04,VALID,917.856,VALID,0,VALID,94.5151,VALID,0,VALID,19.4118,VALID,129,VALID,0,
2012-09-18, 01:05:04,VALID,917.827,VALID,0,VALID,94.4084,VALID,0,VALID,19.3923,VALID,130,VALID,0,
2012-09-18, 01:06:04,VALID,917.839,VALID,0,VALID,94.3017,VALID,0,VALID,19.3923,VALID,129,VALID,0,
2012-09-18, 01:07:04,VALID,917.825,VALID,0,VALID,94.2178,VALID,0,VALID,19.3728,VALID,130,VALID,0,
2012-09-18, 01:08:04,VALID,917.816,VALID,0,VALID,94.2788,VALID,0,VALID,19.3728,VALID,130,VALID,0,
2012-09-18, 01:09:04,VALID,917.817,VALID,0,VALID,94.355,VALID,0,VALID,19.3323,VALID,129,VALID,0,
2012-09-18, 01:10:04,VALID,917.816,VALID,0,VALID,94.5837,VALID,0.107441,VALID,19.3728,VALID,130,VALID,0,
2012-09-18, 01:11:04,VALID,917.786,VALID,0,VALID,94.8887,VALID,0,VALID,19.4118,VALID,129,VALID,0,
2012-09-18, 01:12:04,VALID,917.806,VALID,0,VALID,94.9496,VALID,0,VALID,19.4313,VALID,129,VALID,0,
2012-09-18, 01:13:04,VALID,917.786,VALID,0,VALID,94.9954,VALID,0,VALID,19.4118,VALID,129,VALID,0,
2012-09-18, 01:14:04,VALID,917.805,VALID,0,VALID,94.9878,VALID,0,VALID,19.4132,VALID,130,VALID,0,
2012-09-18, 01:15:04,VALID,917.781,VALID,0,VALID,95.0259,VALID,0,VALID,19.4118,VALID,129,VALID,0,
2012-09-18, 01:16:04,VALID,917.782,VALID,0,VALID,94.9878,VALID,0,VALID,19.3937,VALID,129,VALID,0,
2012-09-18, 01:17:04,VALID,917.773,VALID,0,VALID,95.064,VALID,0,VALID,19.3728,VALID,129,VALID,0,
2012-09-18, 01:18:04,VALID,917.776,VALID,0,VALID,95.0716,VALID,0,VALID,19.3728,VALID,129,VALID,0,
2012-09-18, 01:19:04,VALID,917.742,VALID,0,VALID,95.1097,VALID,0,VALID,19.3728,VALID,129,VALID,0,
2012-09-18, 01:20:04,VALID,917.736,VALID,0,VALID,95.1174,VALID,0,VALID,19.3533,VALID,130,VALID,0,
2012-09-18, 01:21:04,VALID,917.707,VALID,0,VALID,95.0945,VALID,0,VALID,19.3533,VALID,129,VALID,0,
2012-09-18, 01:22:04,VALID,917.678,VALID,0,VALID,95.0564,VALID,0,VALID,19.3338,VALID,129,VALID,0,
2012-09-18, 01:23:04,VALID,917.625,VALID,0,VALID,95.125,VALID,0,VALID,19.3728,VALID,129,VALID,0,
2012-09-18, 01:24:04,VALID,917.606,VALID,0,VALID,95.0411,VALID,0,VALID,19.3742,VALID,129,VALID,0,
2012-09-18, 01:25:04,VALID,917.606,VALID,0,VALID,95.0869,VALID,0,VALID,19.3533,VALID,129,VALID,0,
2012-09-18, 01:26:04,VALID,917.566,VALID,0,VALID,95.1479,VALID,0,VALID,19.3728,VALID,129,VALID,0,
2012-09-18, 01:27:04,VALID,917.556,VALID,0,VALID,95.2546,VALID,0,VALID,19.3923,VALID,129,VALID,0,
2012-09-18, 01:28:04,VALID,917.538,VALID,0,VALID,95.3766,VALID,0,VALID,19.4327,VALID,129,VALID,0,
2012-09-18, 01:29:04,VALID,917.528,VALID,0,VALID,95.4833,VALID,0,VALID,19.4523,VALID,129,VALID,0,
2012-09-18, 01:30:04,VALID,917.523,VALID,0,VALID,95.5443,VALID,0,VALID,19.4313,VALID,129,VALID,0,
2012-09-18, 01:31:04,VALID,917.483,VALID,0,VALID,95.6053,VALID,0,VALID,19.4508,VALID,129,VALID,0,
2012-09-18, 01:32:04,VALID,917.477,VALID,0,VALID,95.7501,VALID,0,VALID,19.4898,VALID,129,VALID,0,
2012-09-18, 01:33:04,VALID,917.447,VALID,0,VALID,95.7958,VALID,0,VALID,19.5093,VALID,129,VALID,0,
2012-09-18, 01:34:04,VALID,917.431,VALID,0,VALID,95.7349,VALID,0,VALID,19.4898,VALID,129,VALID,0,
2012-09-18, 01:35:04,VALID,917.378,VALID,0,VALID,95.7501,VALID,0,VALID,19.4898,VALID,129,VALID,0,
2012-09-18, 01:36:04,VALID,917.392,VALID,0,VALID,95.7272,VALID,0,VALID,19.4913,VALID,129,VALID,0,
2012-09-18, 01:37:04,VALID,917.386,VALID,0,VALID,95.6815,VALID,0,VALID,19.4508,VALID,129,VALID,0,
2012-09-18, 01:38:04,VALID,917.373,VALID,0,VALID,95.6357,VALID,0,VALID,19.4118,VALID,129,VALID,0,
2012-09-18, 01:39:04,VALID,917.352,VALID,0,VALID,95.6434,VALID,0,VALID,19.3923,VALID,129,VALID,0,
2012-09-18, 01:40:04,VALID,917.331,VALID,0,VALID,95.7577,VALID,0,VALID,19.3923,VALID,129,VALID,0,
2012-09-18, 01:41:04,VALID,917.336,VALID,0,VALID,95.8416,VALID,0,VALID,19.4118,VALID,129,VALID,0,
2012-09-18, 01:42:04,VALID,917.302,VALID,0,VALID,95.9407,VALID,0,VALID,19.4523,VALID,129,VALID,0,
2012-09-18, 01:43:04,VALID,917.306,VALID,0,VALID,96.0169,VALID,0,VALID,19.4313,VALID,129,VALID,0,
2012-09-18, 01:44:04,VALID,917.302,VALID,0,VALID,96.116,VALID,0,VALID,19.4508,VALID,129,VALID,0,
2012-09-18, 01:45:04,VALID,917.304,VALID,0,VALID,96.0932,VALID,0,VALID,19.4508,VALID,129,VALID,0,
2012-09-18, 01:46:04,VALID,917.325,VALID,0,VALID,96.1618,VALID,0,VALID,19.4703,VALID,129,VALID,0,
2012-09-18, 01:47:04,VALID,917.314,VALID,0,VALID,96.0322,VALID,0,VALID,19.4508,VALID,129,VALID,0,
2012-09-18, 01:48:04,VALID,917.299,VALID,0,VALID,96.0474,VALID,0,VALID,19.4313,VALID,129,VALID,0,
2012-09-18, 01:49:04,VALID,917.283,VALID,0,VALID,96.0932,VALID,0,VALID,19.4508,VALID,129,VALID,0,
2012-09-18, 01:50:04,VALID,917.296,VALID,0,VALID,96.1008,VALID,0,VALID,19.4508,VALID,129,VALID,0,
2012-09-18, 01:51:04,VALID,917.326,VALID,0,VALID,96.1084,VALID,0,VALID,19.4508,VALID,129,VALID,0,
2012-09-18, 01:52:04,VALID,917.287,VALID,0,VALID,96.0245,VALID,0,VALID,19.4508,VALID,129,VALID,0,
2012-09-18, 01:53:04,VALID,917.302,VALID,0,VALID,96.0627,VALID,0,VALID,19.4508,VALID,129,VALID,0,
2012-09-18, 01:54:04,VALID,917.304,VALID,0,VALID,95.9788,VALID,0,VALID,19.4523,VALID,129,VALID,0,
2012-09-18, 01:55:04,VALID,917.291,VALID,0,VALID,96.0169,VALID,0,VALID,19.4508,VALID,129,VALID,0,
2012-09-18, 01:56:04,VALID,917.261,VALID,0,VALID,95.9407,VALID,0,VALID,19.4313,VALID,129,VALID,0,
2012-09-18, 01:57:04,VALID,917.246,VALID,0,VALID,95.9102,VALID,0,VALID,19.4118,VALID,129,VALID,0,
2012-09-18, 01:58:04,VALID,917.244,VALID,0,VALID,95.9026,VALID,0,VALID,19.4132,VALID,129,VALID,0,
2012-09-18, 01:59:04,VALID,917.217,VALID,0,VALID,95.9407,VALID,0,VALID,19.4118,VALID,129,VALID,0,
2012-09-18, 02:00:04,VALID,917.2,VALID,0,VALID,95.8492,VALID,0,VALID,19.3937,VALID,129,VALID,0,
2012-09-18, 02:01:04,VALID,917.239,VALID,0,VALID,95.9788,VALID,0,VALID,19.4327,VALID,129,VALID,0,
2012-09-18, 02:02:04,VALID,917.222,VALID,0,VALID,96.1236,VALID,0,VALID,19.4718,VALID,129,VALID,0,
2012-09-18, 02:03:04,VALID,917.208,VALID,0,VALID,96.1923,VALID,0,VALID,19.4703,VALID,129,VALID,0,
2012-09-18, 02:04:04,VALID,917.21,VALID,0,VALID,96.1618,VALID,0,VALID,19.4703,VALID,129,VALID,0,
2012-09-18, 02:05:04,VALID,917.199,VALID,0,VALID,96.116,VALID,0,VALID,19.4313,VALID,129,VALID,0,
2012-09-18, 02:06:05,VALID,917.176,VALID,0,VALID,96.0779,VALID,0,VALID,19.4118,VALID,129,VALID,0,
2012-09-18, 02:07:05,VALID,917.161,VALID,0,VALID,96.0398,VALID,0,VALID,19.3923,VALID,129,VALID,0,
2012-09-18, 02:08:05,VALID,917.187,VALID,0,VALID,96.0474,VALID,0,VALID,19.3923,VALID,129,VALID,0,
2012-09-18, 02:09:05,VALID,917.142,VALID,0,VALID,96.0322,VALID,0,VALID,19.3923,VALID,129,VALID,0,
2012-09-18, 02:10:05,VALID,917.112,VALID,0,VALID,95.8645,VALID,0,VALID,19.3533,VALID,129,VALID,0,
2012-09-18, 02:11:05,VALID,917.111,VALID,0,VALID,95.7272,VALID,0,VALID,19.2948,VALID,129,VALID,0,
2012-09-18, 02:12:05,VALID,917.085,VALID,0,VALID,95.6891,VALID,0,VALID,19.2363,VALID,129,VALID,0,
2012-09-18, 02:13:05,VALID,917.112,VALID,0,VALID,95.7425,VALID,0,VALID,19.2363,VALID,129,VALID,0,
2012-09-18, 02:14:05,VALID,917.089,VALID,0,VALID,95.7806,VALID,0,VALID,19.2168,VALID,129,VALID,0,
2012-09-18, 02:15:05,VALID,917.09,VALID,0,VALID,95.8111,VALID,0,VALID,19.1973,VALID,129,VALID,0,
2012-09-18, 02:16:05,VALID,917.081,VALID,0,VALID,95.9102,VALID,0,VALID,19.2168,VALID,129,VALID,0,
2012-09-18, 02:17:05,VALID,917.113,VALID,0,VALID,95.9483,VALID,0,VALID,19.1973,VALID,129,VALID,0,
2012-09-18, 02:18:05,VALID,917.112,VALID,0,VALID,96.0017,VALID,0,VALID,19.1973,VALID,129,VALID,0,
2012-09-18, 02:19:05,VALID,917.095,VALID,0,VALID,96.1465,VALID,0,VALID,19.2363,VALID,129,VALID,0,
2012-09-18, 02:20:05,VALID,917.11,VALID,0,VALID,96.0474,VALID,0,VALID,19.2168,VALID,129,VALID,0,
2012-09-18, 02:21:05,VALID,917.097,VALID,0,VALID,95.9483,VALID,0,VALID,19.1388,VALID,129,VALID,0,
2012-09-18, 02:22:05,VALID,917.094,VALID,0,VALID,95.8645,VALID,0.107441,VALID,19.0998,VALID,129,VALID,0,
2012-09-18, 02:23:05,VALID,917.103,VALID,0,VALID,95.8035,VALID,0,VALID,19.0608,VALID,129,VALID,0,
2012-09-18, 02:24:05,VALID,917.096,VALID,0,VALID,95.7425,VALID,0,VALID,19.0427,VALID,129,VALID,0,
2012-09-18, 02:25:05,VALID,917.055,VALID,0,VALID,95.6662,VALID,0,VALID,18.9828,VALID,129,VALID,0,
2012-09-18, 02:26:05,VALID,917.076,VALID,0,VALID,95.6739,VALID,0,VALID,18.9438,VALID,129,VALID,0,
2012-09-18, 02:27:05,VALID,917.084,VALID,0,VALID,95.9331,VALID,0,VALID,19.0037,VALID,129,VALID,0,
2012-09-18, 02:28:05,VALID,917.082,VALID,0,VALID,96.0093,VALID,0,VALID,18.9828,VALID,129,VALID,0,
2012-09-18, 02:29:05,VALID,917.075,VALID,0,VALID,96.055,VALID,0,VALID,18.9828,VALID,129,VALID,0,
2012-09-18, 02:30:05,VALID,917.059,VALID,0,VALID,96.0474,VALID,0,VALID,18.9438,VALID,129,VALID,0,
2012-09-18, 02:31:05,VALID,917.041,VALID,0,VALID,96.1084,VALID,0,VALID,18.9438,VALID,129,VALID,0,
2012-09-18, 02:32:05,VALID,916.987,VALID,0,VALID,96.177,VALID,0,VALID,18.9633,VALID,129,VALID,0,
2012-09-18, 02:33:05,VALID,917.042,VALID,0,VALID,96.2075,VALID,0,VALID,19.0037,VALID,129,VALID,0,
2012-09-18, 02:34:05,VALID,917.019,VALID,0,VALID,96.2685,VALID,0,VALID,18.9828,VALID,129,VALID,0,
2012-09-18, 02:35:05,VALID,917.024,VALID,0,VALID,96.2533,VALID,0,VALID,18.9828,VALID,129,VALID,0,
2012-09-18, 02:36:05,VALID,917.031,VALID,0,VALID,96.3295,VALID,0,VALID,19.0023,VALID,129,VALID,0,
2012-09-18, 02:37:05,VALID,917.017,VALID,0,VALID,96.3066,VALID,0,VALID,18.9828,VALID,125,VALID,0,
2012-09-18, 02:38:05,VALID,917.028,VALID,0,VALID,96.3447,VALID,0,VALID,19.0037,VALID,127,VALID,0,
2012-09-18, 02:39:05,VALID,917.019,VALID,0,VALID,96.4133,VALID,0,VALID,19.0232,VALID,127,VALID,0,
2012-09-18, 02:40:05,VALID,916.956,VALID,0,VALID,96.3447,VALID,0,VALID,18.9828,VALID,127,VALID,0,
2012-09-18, 02:41:05,VALID,916.937,VALID,0,VALID,96.3676,VALID,0,VALID,18.9842,VALID,127,VALID,0,
2012-09-18, 02:42:05,VALID,916.929,VALID,0,VALID,96.3752,VALID,0,VALID,18.9647,VALID,127,VALID,0,
2012-09-18, 02:43:05,VALID,916.87,VALID,0,VALID,96.3829,VALID,0,VALID,18.9243,VALID,127,VALID,0,
2012-09-18, 02:44:05,VALID,916.853,VALID,0,VALID,96.3524,VALID,0,VALID,18.8853,VALID,127,VALID,0,
2012-09-18, 02:45:05,VALID,916.829,VALID,0,VALID,96.3371,VALID,0,VALID,18.8672,VALID,127,VALID,0,
2012-09-18, 02:46:05,VALID,916.821,VALID,0,VALID,96.4438,VALID,0,VALID,18.8463,VALID,124,VALID,0,
2012-09-18, 02:47:05,VALID,916.802,VALID,0,VALID,96.4515,VALID,0,VALID,18.8477,VALID,122,VALID,0,
2012-09-18, 02:48:05,VALID,916.788,VALID,0,VALID,96.4591,VALID,0,VALID,18.8282,VALID,122,VALID,0,
2012-09-18, 02:49:05,VALID,916.798,VALID,0,VALID,96.5582,VALID,0,VALID,18.8268,VALID,125,VALID,0,
2012-09-18, 02:50:05,VALID,916.775,VALID,0,VALID,96.642,VALID,0,VALID,18.8672,VALID,127,VALID,0,
2012-09-18, 02:51:05,VALID,916.76,VALID,0,VALID,96.6649,VALID,0,VALID,18.9048,VALID,126,VALID,0,
2012-09-18, 02:52:05,VALID,916.736,VALID,0,VALID,96.7335,VALID,0,VALID,18.9452,VALID,135,VALID,0,
2012-09-18, 02:53:05,VALID,916.729,VALID,0,VALID,96.6649,VALID,0,VALID,18.9243,VALID,130,VALID,0,
2012-09-18, 02:54:05,VALID,916.7,VALID,0,VALID,96.6192,VALID,0.107441,VALID,18.9048,VALID,136,VALID,0,
2012-09-18, 02:55:05,VALID,916.707,VALID,0,VALID,96.6268,VALID,0,VALID,18.9062,VALID,136,VALID,0,
2012-09-18, 02:56:05,VALID,916.692,VALID,0,VALID,96.7107,VALID,0,VALID,18.9243,VALID,136,VALID,0,
2012-09-18, 02:57:05,VALID,916.701,VALID,0,VALID,96.6878,VALID,0,VALID,18.9257,VALID,136,VALID,0,
2012-09-18, 02:58:05,VALID,916.696,VALID,0,VALID,96.6725,VALID,0,VALID,18.8853,VALID,136,VALID,0,
2012-09-18, 02:59:05,VALID,916.679,VALID,0,VALID,96.6649,VALID,0,VALID,18.8867,VALID,136,VALID,0,
2012-09-18, 03:00:05,VALID,916.676,VALID,0,VALID,96.6497,VALID,0,VALID,18.8672,VALID,136,VALID,0,
2012-09-18, 03:01:05,VALID,916.644,VALID,0,VALID,96.6878,VALID,0,VALID,18.8477,VALID,136,VALID,0,
2012-09-18, 03:02:05,VALID,916.652,VALID,0,VALID,96.6649,VALID,0,VALID,18.8282,VALID,136,VALID,0,
2012-09-18, 03:03:05,VALID,916.63,VALID,0,VALID,96.764,VALID,0,VALID,18.8282,VALID,136,VALID,0,
2012-09-18, 03:04:05,VALID,916.63,VALID,0,VALID,96.7869,VALID,0,VALID,18.8087,VALID,133,VALID,0,
2012-09-18, 03:05:05,VALID,916.633,VALID,0,VALID,96.7945,VALID,0,VALID,18.7878,VALID,128,VALID,0,
2012-09-18, 03:06:05,VALID,916.659,VALID,0,VALID,96.825,VALID,0,VALID,18.8282,VALID,128,VALID,0,
2012-09-18, 03:07:05,VALID,916.664,VALID,0,VALID,96.8403,VALID,0,VALID,18.8087,VALID,128,VALID,0,
2012-09-18, 03:08:05,VALID,916.677,VALID,0,VALID,96.8631,VALID,0,VALID,18.7892,VALID,128,VALID,0,
2012-09-18, 03:09:05,VALID,916.66,VALID,0,VALID,96.8555,VALID,0,VALID,18.7892,VALID,143,VALID,0,
2012-09-18, 03:10:05,VALID,916.634,VALID,0,VALID,96.8707,VALID,0,VALID,18.7503,VALID,143,VALID,0,
2012-09-18, 03:11:05,VALID,916.596,VALID,0,VALID,96.8707,VALID,0,VALID,18.7308,VALID,143,VALID,0,
2012-09-18, 03:12:05,VALID,916.576,VALID,0,VALID,96.8707,VALID,0,VALID,18.7113,VALID,143,VALID,0,
2012-09-18, 03:13:05,VALID,916.556,VALID,0,VALID,96.9012,VALID,0,VALID,18.7308,VALID,141,VALID,0,
2012-09-18, 03:14:05,VALID,916.543,VALID,0,VALID,96.9241,VALID,0,VALID,18.7308,VALID,138,VALID,0,
2012-09-18, 03:15:05,VALID,916.497,VALID,0,VALID,96.9241,VALID,0,VALID,18.7113,VALID,136,VALID,0,
2012-09-18, 03:16:05,VALID,916.554,VALID,0,VALID,96.9089,VALID,0,VALID,18.6513,VALID,130,VALID,0,
2012-09-18, 03:17:05,VALID,916.526,VALID,0,VALID,96.9546,VALID,0,VALID,18.6918,VALID,130,VALID,0,
2012-09-18, 03:18:05,VALID,916.538,VALID,0,VALID,96.9546,VALID,0,VALID,18.6903,VALID,130,VALID,0,
2012-09-18, 03:19:05,VALID,916.505,VALID,0,VALID,96.9927,VALID,0,VALID,18.6918,VALID,130,VALID,0,
2012-09-18, 03:20:05,VALID,916.478,VALID,0,VALID,96.9927,VALID,0,VALID,18.6723,VALID,137,VALID,0,
2012-09-18, 03:21:05,VALID,916.478,VALID,0,VALID,97.0156,VALID,0,VALID,18.7113,VALID,148,VALID,0,
2012-09-18, 03:22:05,VALID,916.448,VALID,0,VALID,97.0308,VALID,0,VALID,18.6918,VALID,147,VALID,0,
2012-09-18, 03:23:05,VALID,916.443,VALID,0,VALID,97.0308,VALID,0,VALID,18.6708,VALID,148,VALID,0,
2012-09-18, 03:24:05,VALID,916.458,VALID,0,VALID,97.008,VALID,0,VALID,18.7308,VALID,145,VALID,0,
2012-09-18, 03:25:05,VALID,916.405,VALID,0,VALID,97.0308,VALID,0,VALID,18.7503,VALID,145,VALID,0,
2012-09-18, 03:26:05,VALID,916.449,VALID,0,VALID,97.0537,VALID,0,VALID,18.7697,VALID,145,VALID,0,
2012-09-18, 03:27:05,VALID,916.419,VALID,0,VALID,97.0461,VALID,0,VALID,18.7697,VALID,145,VALID,0,
2012-09-18, 03:28:05,VALID,916.441,VALID,0,VALID,97.0461,VALID,0,VALID,18.8087,VALID,160,VALID,0,
2012-09-18, 03:29:05,VALID,916.422,VALID,0,VALID,97.069,VALID,0,VALID,18.7892,VALID,168,VALID,0,
2012-09-18, 03:30:05,VALID,916.456,VALID,0,VALID,97.0461,VALID,0,VALID,18.7892,VALID,166,VALID,0,
2012-09-18, 03:31:05,VALID,916.412,VALID,0,VALID,97.0232,VALID,0,VALID,18.7892,VALID,170,VALID,0,
2012-09-18, 03:32:05,VALID,916.372,VALID,0,VALID,97.0385,VALID,0,VALID,18.8102,VALID,161,VALID,0,
2012-09-18, 03:33:05,VALID,916.385,VALID,0,VALID,97.0461,VALID,0,VALID,18.7697,VALID,162,VALID,0,
2012-09-18, 03:34:05,VALID,916.351,VALID,0,VALID,97.0232,VALID,0,VALID,18.7503,VALID,162,VALID,0,
2012-09-18, 03:35:05,VALID,916.375,VALID,0,VALID,97.0232,VALID,0,VALID,18.7308,VALID,132,VALID,0,
2012-09-18, 03:36:05,VALID,916.36,VALID,0,VALID,97.0156,VALID,0,VALID,18.7127,VALID,144,VALID,0,
2012-09-18, 03:37:05,VALID,916.408,VALID,0,VALID,96.9927,VALID,0,VALID,18.6737,VALID,144,VALID,0,
2012-09-18, 03:38:05,VALID,916.413,VALID,0,VALID,96.9851,VALID,0,VALID,18.6528,VALID,155,VALID,0,
2012-09-18, 03:39:05,VALID,916.401,VALID,0,VALID,97.008,VALID,0,VALID,18.6528,VALID,155,VALID,0,
2012-09-18, 03:40:05,VALID,916.394,VALID,0,VALID,97.0232,VALID,0,VALID,18.6737,VALID,155,VALID,0,
2012-09-18, 03:41:05,VALID,916.398,VALID,0,VALID,97.0461,VALID,0,VALID,18.6918,VALID,155,VALID,0,
2012-09-18, 03:42:05,VALID,916.347,VALID,0,VALID,97.0461,VALID,0,VALID,18.6918,VALID,172,VALID,0,
2012-09-18, 03:43:05,VALID,916.336,VALID,0,VALID,97.0613,VALID,0,VALID,18.6737,VALID,172,VALID,0,
2012-09-18, 03:44:05,VALID,916.295,VALID,0,VALID,97.0537,VALID,0,VALID,18.6528,VALID,172,VALID,0,
2012-09-18, 03:45:05,VALID,916.291,VALID,0,VALID,97.069,VALID,0,VALID,18.6333,VALID,172,VALID,0,
2012-09-18, 03:46:05,VALID,916.278,VALID,0,VALID,97.0766,VALID,0.107441,VALID,18.6723,VALID,148,VALID,0,
2012-09-18, 03:47:05,VALID,916.288,VALID,0,VALID,97.0842,VALID,0,VALID,18.6513,VALID,135,VALID,0,
2012-09-18, 03:48:05,VALID,916.288,VALID,0,VALID,97.0918,VALID,0,VALID,18.6903,VALID,123,VALID,0,
2012-09-18, 03:49:05,VALID,916.291,VALID,0,VALID,97.1071,VALID,0,VALID,18.6513,VALID,122,VALID,0,
2012-09-18, 03:50:05,VALID,916.286,VALID,0,VALID,97.0766,VALID,0,VALID,18.6319,VALID,122,VALID,0,
2012-09-18, 03:51:05,VALID,916.275,VALID,0,VALID,97.0766,VALID,0.107441,VALID,18.6124,VALID,122,VALID,0,
2012-09-18, 03:52:05,VALID,916.291,VALID,0,VALID,97.069,VALID,0,VALID,18.5734,VALID,122,VALID,0,
2012-09-18, 03:53:05,VALID,916.266,VALID,0,VALID,97.0842,VALID,0,VALID,18.5734,VALID,111,VALID,0,
2012-09-18, 03:54:05,VALID,916.26,VALID,0,VALID,97.0766,VALID,0,VALID,18.5734,VALID,121,VALID,0,
2012-09-18, 03:55:05,VALID,916.259,VALID,0,VALID,97.0766,VALID,0,VALID,18.5734,VALID,109,VALID,0,
2012-09-18, 03:56:05,VALID,916.232,VALID,0,VALID,97.0994,VALID,0.107441,VALID,18.5734,VALID,105,VALID,0,
2012-09-18, 03:57:05,VALID,916.215,VALID,0,VALID,97.1376,VALID,0,VALID,18.5734,VALID,135,VALID,0,
2012-09-18, 03:58:05,VALID,916.174,VALID,0,VALID,97.1223,VALID,0,VALID,18.5539,VALID,119,VALID,0,
2012-09-18, 03:59:05,VALID,916.173,VALID,0,VALID,97.1528,VALID,0,VALID,18.5734,VALID,130,VALID,0,